EW5004 Weather Reports


Display with metric or nautical units.
time (UTC)temp
F
wind
direction
speed
MPH
gust
MPH
rain 1hr
in
rain 24hr
in
rain mn
in
humidity
%
barometer
mb
20260507120047 42 259 1.0 5.0 0.00 0.00 0.00 14 1012.7
20260507114558 41 248 1.0 6.0 0.00 0.00 0.00 9 1012.6
20260507113040 40 232 2.0 7.0 0.00 0.00 0.00 6 1012.5
20260507111534 39 235 2.0 6.0 0.00 0.00 0.00 2 1012.4
20260507110038 38 241 3.0 6.0 0.00 0.00 0.00 3 1012.3
20260507104529 37 240 1.0 5.0 0.00 0.00 0.00 3 1012.3
20260507103028 37 244 1.0 6.0 0.00 0.00 0.00 2 1012.1
20260507101529 37 246 2.0 6.0 0.00 0.00 0.00 2 1012.1
20260507100020 37 244 3.0 8.0 0.00 0.00 0.00 2 1012.0
20260507094508 37 237 4.0 7.0 0.00 0.00 0.00 2 1011.9
20260507093005 37 240 3.0 6.0 0.00 0.00 0.00 3 1012.0
20260507091601 37 239 3.0 7.0 0.00 0.00 0.00 3 1012.0
20260507090057 38 249 2.0 6.0 0.00 0.00 0.00 4 1012.1
20260507084554 38 242 3.0 7.0 0.00 0.00 0.00 4 1012.1
20260507083047 38 246 1.0 5.0 0.00 0.00 0.00 4 1012.2
20260507081644 38 237 3.0 6.0 0.00 0.00 0.00 3 1012.2
20260507080038 38 242 2.0 5.0 0.00 0.00 0.00 2 1012.2
20260507074533 38 234 3.0 6.0 0.00 0.00 0.00 100 1012.4
20260507073028 38 275 3.0 7.0 0.00 0.00 0.00 100 1012.4
20260507071526 38 232 2.0 3.0 0.00 0.00 0.00 100 1012.4
20260507070028 38 228 0.0 2.0 0.00 0.00 0.00 100 1012.5
20260507064517 39 229 1.0 2.0 0.00 0.00 0.00 100 1012.5
20260507063011 40 229 1.0 4.0 0.00 0.00 0.00 100 1012.7
20260507061507 40 229 2.0 5.0 0.00 0.00 0.00 100 1012.8
20260507060003 40 227 0.0 2.0 0.00 0.00 0.00 100 1012.9
20260507054558 41 227 0.0 1.0 0.00 0.00 0.00 1 1013.1
20260507053113 41 227 0.0 4.0 0.00 0.00 0.00 3 1013.2
20260507051550 41 225 1.0 4.0 0.00 0.00 0.00 1 1013.2
20260507050044 41 242 0.0 3.0 0.00 0.00 0.00 1 1013.3
20260507044555 41 243 1.0 3.0 0.00 0.00 0.00 100 1013.3
20260507043036 41 243 0.0 3.0 0.00 0.00 0.00 100 1013.4
20260507041531 41 246 1.0 3.0 0.00 0.00 0.00 100 1013.6
20260507040026 41 261 1.0 3.0 0.00 0.00 0.00 100 1013.6
20260507034522 41 327 0.0 0.0 0.00 0.00 0.00 2 1013.6
20260507033026 42 327 0.0 0.0 0.00 0.00 0.00 6 1013.7
20260507031514 42 328 0.0 2.0 0.00 0.00 0.00 9 1013.7
20260507030010 43 329 0.0 0.0 0.00 0.00 0.00 15 1013.6
20260507024508 43 329 0.0 0.0 0.00 0.00 0.00 17 1013.5
20260507023001 43 329 0.0 1.0 0.00 0.00 0.00 18 1013.5
20260507021559 44 329 0.0 2.0 0.00 0.00 0.00 20 1013.3
20260507020100 44 330 0.0 2.0 0.00 0.00 0.00 26 1013.4
20260507014555 45 335 0.0 1.0 0.00 0.00 0.00 36 1013.3
20260507013044 45 336 0.0 0.0 0.00 0.00 0.00 52 1013.4
20260507011546 45 336 0.0 2.0 0.00 0.00 0.00 54 1013.4
20260507010041 45 337 1.0 4.0 0.00 0.00 0.00 54 1013.5
20260507004532 46 340 0.0 3.0 0.00 0.00 0.00 54 1013.5
20260507003026 46 341 0.0 0.0 0.00 0.00 0.00 54 1013.5
20260507001526 46 355 0.0 1.0 0.00 0.00 0.00 55 1013.3
20260507000017 46 355 1.0 3.0 0.00 0.00 0.00 55 1013.0
20260506234512 46 334 0.0 4.0 0.00 0.00 0.00 55 1013.0
20260506233009 46 340 2.0 5.0 0.00 0.00 0.00 55 1013.0
20260506231504 46 348 1.0 6.0 0.00 0.00 0.00 56 1013.1
20260506230104 46 348 2.0 6.0 0.00 0.00 0.00 56 1013.0
20260506224600 47 317 1.0 7.0 0.00 0.00 0.00 56 1013.0
20260506223051 47 22 3.0 10.0 0.00 0.00 0.00 56 1012.8
20260506221548 47 348 2.0 7.0 0.00 0.00 0.00 55 1012.7
20260506220042 48 339 3.0 10.0 0.00 0.00 0.00 54 1012.7
20260506214538 48 5 3.0 10.0 0.00 0.00 0.00 52 1012.3
20260506213037 48 46 5.0 12.0 0.00 0.00 0.00 54 1012.2
20260506211530 49 327 3.0 8.0 0.00 0.00 0.00 54 1011.7
20260506210031 49 340 3.0 7.0 0.00 0.00 0.00 54 1011.8
20260506204521 49 336 4.0 11.0 0.00 0.00 0.00 55 1011.6
20260506203016 50 303 3.0 9.0 0.00 0.00 0.00 54 1011.5
20260506201512 50 327 3.0 9.0 0.00 0.00 0.00 53 1011.4
20260506200007 51 330 5.0 10.0 0.00 0.00 0.00 53 1011.4
20260506194505 51 10 4.0 8.0 0.00 0.00 0.00 51 1011.3
20260506193059 51 19 7.0 11.0 0.00 0.00 0.00 48 1011.4
20260506191555 50 28 5.0 14.0 0.00 0.00 0.00 48 1011.4
20260506190053 51 320 3.0 12.0 0.00 0.00 0.00 43 1011.2
20260506184550 51 22 6.0 14.0 0.00 0.00 0.00 37 1011.5
20260506183041 51 343 3.0 10.0 0.00 0.00 0.00 29 1011.2
20260506181537 50 317 4.0 10.0 0.00 0.00 0.00 16 1011.0
20260506180032 49 321 3.0 11.0 0.00 0.00 0.00 7 1011.3
20260506174527 48 67 4.0 9.0 0.00 0.00 0.00 100 1011.2
20260506173031 48 355 3.0 9.0 0.00 0.00 0.00 100 1010.9
20260506171520 48 336 4.0 11.0 0.00 0.00 0.00 100 1010.8
20260506170014 48 360 5.0 9.0 0.00 0.00 0.00 100 1010.9
20260506164510 48 5 3.0 10.0 0.00 0.00 0.00 100 1010.7
20260506163006 50 12 5.0 12.0 0.00 0.00 0.00 1 1010.6
20260506161501 50 63 4.0 8.0 0.00 0.00 0.00 100 1010.3
20260506160111 48 5 3.0 9.0 0.00 0.00 0.00 100 1010.2
20260506154554 48 306 5.0 10.0 0.00 0.00 0.00 100 1010.2
20260506153056 47 82 1.0 8.0 0.00 0.00 0.00 100 1009.9
20260506151548 47 349 3.0 9.0 0.00 0.00 0.00 100 1009.7
20260506150042 47 336 3.0 7.0 0.00 0.00 0.00 100 1009.4
20260506144539 47 355 2.0 7.0 0.00 0.00 0.00 100 1009.3
20260506143033 47 360 4.0 7.0 0.00 0.00 0.00 100 1009.2
20260506141530 47 22 1.0 5.0 0.00 0.00 0.00 100 1009.1
20260506140022 47 355 1.0 5.0 0.00 0.00 0.00 100 1008.8
20260506134517 47 52 1.0 4.0 0.00 0.00 0.00 100 1008.3
20260506133013 47 57 1.0 4.0 0.00 0.00 0.00 100 1008.5
20260506131508 47 18 1.0 3.0 0.00 0.00 0.00 100 1008.2
20260506130004 47 15 1.0 4.0 0.00 0.00 0.00 100 1008.4
20260506124602 46 53 1.0 6.0 0.00 0.00 0.00 100 1008.1
20260506123056 46 64 2.0 6.0 0.00 0.00 0.00 100 1008.0
20260506121551 46 82 0.0 4.0 0.00 0.00 0.00 100 1007.9